Regional Weather Roundup
Issued by NWS Green Bay, WI

Home | Current Version | Previous Version | Text Only | Print | Product List | Glossary On
Versions: 1 2 3 4 5 6 7 8 9 10 11 12 13 14 15 16 17 18 19 20 21 22 23 24 25 26 27 28 29 30 31 32 33 34 35 36 37 38 39 40 41 42 43 44 45 46 47 48 49 50
000
ASUS43 KGRB 071111
RWRGRB

NORTH-CENTRAL AND NORTHEAST WISCONSIN REGIONAL WEATHER ROUNDUP
NATIONAL WEATHER SERVICE GREEN BAY WI
600 AM CDT TUE JUL 07 2015

WIZ005-009-010>012-018-019-071200-
NORTH CENTRAL WISCONSIN

CITY           SKY/WX    TMP DP  RH WIND       PRES   REMARKS
IRONWOOD       CLOUDY    52  48  87 N6        30.04R
MANITOWISH WTR CLOUDY    49  48  96 N6        30.05R
ARBOR VITAE    CLOUDY    52  49  91 N3        30.04R
EAGLE RIVER    CLOUDY    50  46  87 N8        30.03R
LAND O LAKES   CLOUDY    50  45  84 N8        30.04R
RHINELANDER    CLEAR     49  45  86 N5        30.03R
PHILLIPS       CLEAR     46  46 100 NW3       30.05R
ANTIGO         CLEAR     49  47  92 N8        30.02R
TOMAHAWK       CLEAR     46  45  95 CALM      30.04R
MERRILL        CLEAR     49  48  97 NW5       30.04R
$$

WIZ013-073-071200-
NORTHEAST WISCONSIN

CITY           SKY/WX    TMP DP  RH WIND       PRES   REMARKS
IRON MOUNTAIN  PTCLDY    52  48  86 NW9       29.97R
MARINETTE      CLEAR     52  46  82 N7        29.96S
OCONTO         CLOUDY    55  48  77 N8        29.97R
$$

WIZ017-030-035>037-045-071200-
CENTRAL WISCONSIN

CITY           SKY/WX    TMP DP  RH WIND       PRES   REMARKS
MEDFORD        CLEAR     48  46  93 N7        30.05R
WAUSAU         CLEAR     53  48  83 VRB5      30.01R
MOSINEE        CLEAR     52  50  93 NW9       30.02R
MARSHFIELD     CLEAR     52  46  80 N9        30.03R
WISC RAPIDS    CLEAR     54  49  83 N10       30.02R
STEVENS POINT  CLEAR     51  50  95 NW7       30.01R FOG
WAUPACA        CLOUDY    58  57  97 NW3       29.99R FOG
SHAWANO        CLOUDY    59  52  77 NE9       29.99R
CLINTONVILLE   CLOUDY    57  50  77 NE8       29.98R
$$

WIZ038-039-048-051-071200-
FOX VALLEY

CITY           SKY/WX    TMP DP  RH WIND       PRES   REMARKS
NWS GREEN BAY  CLOUDY    58  48  69 N13       29.97R
APPLETON       CLOUDY    57  52  82 N13       29.97R HAZE
OSHKOSH        PTCLDY    60  54  80 N12       29.97R HAZE
FOND DU LAC    CLOUDY    61  57  87 NW10      29.95R FOG
$$

WIZ022-050-052-071200-
EAST CENTRAL WISCONSIN

CITY           SKY/WX    TMP DP  RH WIND       PRES   REMARKS
STURGEON BAY   CLOUDY    55  46  71 N15G22    29.98R
MANITOWOC      CLOUDY    58  53  84 MISG      29.95
SHEBOYGAN      CLOUDY    58  53  84 N8        29.95R
$$

LMZ563-521-522-541>543-071200-
LAKESHORE

STATION/POSITION TIME  TEMP    WIND        PRES    VSBY  WAVE
                       AIR SEA DIR/SP/G                  HT/PER
                 (UTC) (F)     (DEG/KT/KT) (MB)    (MI)  (FT/S)
SHEBOYGAN LKSHOR 1100   56     350/  8/  9 1014.3R
KEWAUNEE LKSHORE 1000   58     360/  8/ 12 1013.0R
ALGOMA MARINA    1011           10/  6/  8   N/A
NORTHPORT PIER   1000   58     350/ 20/ 23 1013.5R
N MID LAKE BUOY  1050   53 52  320/ 14/ 16 1013.0R         3/ 4
SISTER BAY LKSHO 1044   56      20/ 21/ 25   N/A
CHAMBERS ISLAND  1000   57     330/ 15/ 20 1014.2R
MENOMINEE LKSHOR 1000   56     340/ 12/ 15 1015.0R
$$



USA.gov is the U.S. government's official web portal to all federal, state and local government web resources and services.